Weather History for Homestead AFB, FL

Change the Weather History Date:

Saturday, December 8, 2012

  Actual Average Record
Temperature  
Mean Temperature 75 °F -  
Max Temperature 80 °F 77 °F 87 °F (1942)
Min Temperature 70 °F 58 °F 38 °F (2010)
Cooling Degree Days 10    
Growing Degree Days 25 (Base 50)    
Moisture  
Dew Point 71 °F    
Average Humidity 87    
Maximum Humidity 94    
Minimum Humidity 74    
Precipitation  
Precipitation 0.07 in - - ()
Sea Level Pressure  
Sea Level Pressure 30.01 in    
Wind  
Wind Speed 6 mph (East)    
Max Wind Speed 14 mph    
Max Gust Speed -    
Visibility 10 miles    
Events Rain    
Averages and records for this station are not official NWS values.
T = Trace of Precipitation, MM = Missing Value Source: NWS Daily Summary

Daily Weather History Graph

Daily Weather History Graph

Search for Another Location

Airport:

Trip Planner

Search our weather history database for the weather conditions in past years. The results will help you decide how hot, cold, wet, or windy it might be!

Date:

Astronomy

Dec. 08, 2012 Rise Set
Actual Time 6:55 AM EST 5:31 PM EST
Civil Twilight 6:30 AM EST 5:56 PM EST
Nautical Twilight 6:02 AM EST 6:25 PM EST
Astronomical Twilight 5:34 AM EST 6:53 PM EST
Moon 1:44 AM EST (12/8) 1:38 PM EST (12/8)
Length of Visible Light 11h 25m
Length of Day
10h 35m
Waning Crescent, 28% of the Moon is Illuminated
Dec 8
Waning Crescent
Dec 13
New
Dec 20
First Quarter
Dec 28
Full
Jan 4
Last Quarter

Hourly Weather History & Observations

Time (EST) Temp. Heat Index Dew Point Humidity Pressure Visibility Wind Dir Wind Speed Gust Speed Precip Events Conditions
12:55 AM 70.2 °F - 67.3 °F 91% 29.98 in 10.0 mi ESE 4.6 mph - N/A   Partly Cloudy
1:55 AM 70.9 °F - 67.8 °F 90% 29.98 in 10.0 mi East 4.6 mph - N/A   Clear
2:55 AM 71.1 °F - 68.0 °F 90% 29.97 in 10.0 mi East 4.6 mph - N/A   Partly Cloudy
3:55 AM 71.1 °F - 68.4 °F 91% 29.96 in 10.0 mi East 4.6 mph - N/A   Partly Cloudy
4:55 AM 72.1 °F - 69.3 °F 91% 29.97 in 10.0 mi East 4.6 mph - N/A   Scattered Clouds
5:55 AM 72.3 °F - 68.9 °F 89% 29.99 in 10.0 mi East 3.5 mph - N/A   Partly Cloudy
6:55 AM 72.9 °F - 69.4 °F 89% 30.00 in 10.0 mi East 4.6 mph - N/A   Scattered Clouds
7:55 AM 75.0 °F - 70.5 °F 86% 30.01 in 10.0 mi East 5.8 mph - N/A   Partly Cloudy
8:49 AM 77.0 °F - 71.6 °F 83% 30.03 in 10.0 mi East 8.1 mph - N/A   Mostly Cloudy
8:55 AM 77.7 °F - 71.4 °F 81% 30.03 in 10.0 mi East 9.2 mph - N/A   Mostly Cloudy
9:10 AM 78.8 °F - 71.6 °F 78% 30.04 in 10.0 mi East 11.5 mph - N/A   Mostly Cloudy
9:55 AM 80.2 °F 83.9 °F 71.4 °F 74% 30.04 in 10.0 mi ESE 13.8 mph - N/A   Clear
10:55 AM 78.6 °F - 71.1 °F 78% 30.04 in 10.0 mi ESE 8.1 mph - N/A   Partly Cloudy
11:55 AM 79.0 °F - 71.1 °F 77% 30.02 in 10.0 mi East 11.5 mph - N/A   Partly Cloudy
12:55 PM 79.3 °F - 71.2 °F 76% 29.98 in 10.0 mi ESE 11.5 mph - N/A   Partly Cloudy
1:55 PM 79.0 °F - 71.6 °F 78% 29.97 in 10.0 mi ESE 10.4 mph - N/A   Clear
2:55 PM 78.4 °F - 71.8 °F 80% 29.98 in 10.0 mi ESE 9.2 mph - N/A   Partly Cloudy
3:55 PM 78.1 °F - 72.0 °F 81% 29.98 in 10.0 mi East 9.2 mph - N/A   Partly Cloudy
4:55 PM 77.9 °F - 71.6 °F 81% 29.98 in 10.0 mi ESE 5.8 mph - N/A   Partly Cloudy
5:08 PM 77.0 °F - 71.6 °F 83% 29.99 in 10.0 mi ESE 8.1 mph - N/A Rain Light Rain
5:20 PM 75.2 °F - 71.6 °F 89% 29.99 in 10.0 mi East 3.5 mph - N/A   Partly Cloudy
5:55 PM 75.4 °F - 72.0 °F 89% 30.00 in 10.0 mi Calm Calm - 0.00 in   Partly Cloudy
6:02 PM 75.2 °F - 71.6 °F 89% 30.00 in 9.0 mi East 3.5 mph - N/A Rain Light Rain
6:04 PM 75.2 °F - 71.6 °F 89% 30.00 in 9.0 mi East 4.6 mph - N/A Rain Light Rain
6:07 PM 75.2 °F - 71.6 °F 89% 30.00 in 8.0 mi East 4.6 mph - N/A Rain Light Rain
6:09 PM 75.2 °F - 71.6 °F 89% 30.00 in 8.0 mi East 4.6 mph - N/A Rain Light Rain
6:10 PM 75.2 °F - 71.6 °F 89% 30.00 in 8.0 mi East 4.6 mph - N/A Rain Light Rain
6:12 PM 75.2 °F - 71.6 °F 89% 30.01 in 8.0 mi ENE 4.6 mph - N/A Rain Light Rain
6:16 PM 75.2 °F - 71.6 °F 89% 30.01 in 9.0 mi ENE 4.6 mph - N/A Rain Light Rain
6:34 PM 75.2 °F - 71.6 °F 89% 30.01 in 9.0 mi Calm Calm - N/A Rain Light Rain
6:49 PM 75.2 °F - 71.6 °F 89% 30.01 in 10.0 mi Calm Calm - N/A   Partly Cloudy
6:55 PM 74.7 °F - 72.3 °F 92% 30.01 in 10.0 mi Calm Calm - 0.04 in   Partly Cloudy
7:19 PM 75.2 °F - 71.6 °F 89% 30.02 in 10.0 mi SE 3.5 mph - N/A Rain Light Rain
7:24 PM 75.2 °F - 71.6 °F 89% 30.02 in 8.0 mi ESE 3.5 mph - N/A Rain Light Rain
7:49 PM 73.4 °F - 71.6 °F 94% 30.03 in 10.0 mi East 4.6 mph - N/A   Clear
7:55 PM 74.1 °F - 72.1 °F 94% 30.03 in 10.0 mi East 3.5 mph - 0.01 in   Clear
8:07 PM 73.4 °F - 71.6 °F 94% 30.03 in 10.0 mi Calm Calm - N/A Rain Light Rain
8:17 PM 73.4 °F - 71.6 °F 94% 30.03 in 10.0 mi Calm Calm - N/A   Partly Cloudy
8:55 PM 73.9 °F - 72.1 °F 94% 30.04 in 10.0 mi East 6.9 mph - 0.02 in   Partly Cloudy
9:55 PM 73.0 °F - 70.7 °F 92% 30.05 in 10.0 mi East 5.8 mph - N/A   Clear
10:41 PM 75.2 °F - 71.6 °F 89% 30.05 in 10.0 mi East 6.9 mph - N/A   Mostly Cloudy
10:55 PM 74.8 °F - 72.5 °F 92% 30.05 in 10.0 mi ESE 4.6 mph - N/A   Mostly Cloudy
11:13 PM 75.2 °F - 71.6 °F 89% 30.05 in 10.0 mi SE 4.6 mph - N/A   Scattered Clouds
11:55 PM 73.8 °F - 71.4 °F 92% 30.04 in 10.0 mi ESE 4.6 mph - N/A   Clear